Squamish, British Columbia

7:22 AM PDT on October 23, 2017 (GMT -0700)
Squamish

Weather History for CWSK - October, 2012

Change the Weather History Date:

Saturday, October 20, 2012

  Actual Average Record
Temperature  
Mean Temperature 43 °F -  
Max Temperature 48 °F - - ()
Min Temperature 38 °F - - ()
Degree Days  
Heating Degree Days 22    
Moisture  
Dew Point 40 °F    
Average Humidity 91    
Maximum Humidity 100    
Minimum Humidity 68    
Precipitation  
Precipitation 0.20 in - - ()
Sea Level Pressure  
Sea Level Pressure 29.77 in    
Wind  
Wind Speed 4 mph ()    
Max Wind Speed 9 mph    
Max Gust Speed 17 mph    
T = Trace of Precipitation, MM = Missing Value Source: Averaged Metar Reports

Daily Weather History Graph

Daily Weather History Graph

Search for Another Location

Airport or City:

Trip Planner

Search our weather history database for the weather conditions in past years. The results will help you decide how hot, cold, wet, or windy it might be!

Date:

Astronomy

Oct. 20, 2012 Rise Set
Actual Time 7:43 AM PDT 6:10 PM PDT
Civil Twilight 7:10 AM PDT 6:43 PM PDT
Nautical Twilight 6:32 AM PDT 7:20 PM PDT
Astronomical Twilight 5:55 AM PDT 7:57 PM PDT
Moon 1:40 PM PDT (10/20) 10:47 PM PDT (10/20)
Length of Visible Light 11h 32m
Length of Day
10h 27m
Waxing Crescent, 35% of the Moon is Illuminated
Oct 20
Waxing Crescent
Oct 21
First Quarter
Oct 29
Full
Nov 6
Last Quarter
Nov 13
New

Hourly Weather History & Observations

Time (PDT) Temp. Windchill Dew Point Humidity Pressure Visibility Wind Dir Wind Speed Gust Speed Precip Events Conditions
12:00 AM 46.8 °F - 41.2 °F 81% 29.65 in - SE 9.2 mph 17.3 mph N/A   Unknown
1:00 AM 47.3 °F - 40.6 °F 78% 29.66 in - SE 6.9 mph - N/A   Unknown
2:00 AM 45 °F - 40 °F 78% 29.69 in - ESE 5.8 mph - -  
2:00 AM 45.1 °F 42.0 °F 40.3 °F 83% 29.69 in - ESE 5.8 mph - 0.04 in   Unknown
3:00 AM 42.1 °F - 38.7 °F 88% 29.72 in - NW 2.3 mph - N/A   Unknown
4:00 AM 41.4 °F 39.4 °F 41.2 °F 99% 29.72 in - NW 3.5 mph - N/A   Unknown
5:00 AM 40 °F - 40 °F 100% 29.73 in - NW 2.3 mph - -  
5:00 AM 40.3 °F - 40.3 °F 100% 29.73 in - NW 2.3 mph - 0.02 in   Unknown
6:00 AM 41.0 °F 39.0 °F 41.0 °F 100% 29.74 in - North 3.5 mph - N/A   Unknown
7:00 AM 40.3 °F - 40.3 °F 100% 29.75 in - ESE 1.2 mph - N/A   Unknown
8:00 AM 41 °F - 41 °F 98% 29.76 in - NE 1.2 mph - -  
8:00 AM 40.6 °F - 40.6 °F 100% 29.76 in - NE 1.2 mph - N/A   Unknown
9:00 AM 40.1 °F - 40.1 °F 100% 29.77 in - North 2.3 mph - 0.04 in   Unknown
10:00 AM 40.1 °F 38.0 °F 40.1 °F 100% 29.79 in - North 3.5 mph - 0.02 in   Unknown
11:00 AM 40 °F - 39 °F 97% 29.81 in - NNE 3.5 mph - -  
11:00 AM 40.1 °F 38.0 °F 39.4 °F 97% 29.81 in - NNE 3.5 mph - 0.12 in   Unknown
12:00 PM 39.7 °F - 39.7 °F 100% 29.81 in - NE 1.2 mph - 0.12 in   Unknown
1:00 PM 42.1 °F - 39.0 °F 89% 29.81 in - NW 2.3 mph - 0.03 in   Unknown
2:00 PM 44 °F - 40 °F 81% 29.80 in - West 1.2 mph - -  
2:00 PM 44.4 °F - 40.1 °F 85% 29.80 in - West 1.2 mph - N/A   Unknown
3:00 PM 48.0 °F - 39.6 °F 73% 29.79 in - SSE 5.8 mph - N/A   Unknown
4:00 PM 45.1 °F 40.3 °F 35.2 °F 68% 29.79 in - SE 9.2 mph - N/A   Unknown
5:00 PM 44 °F - 38 °F 71% 29.79 in - SSE 4.6 mph - -  
5:00 PM 44.1 °F 41.5 °F 37.6 °F 78% 29.79 in - SSE 4.6 mph - N/A   Unknown
6:00 PM 42.1 °F - 40.6 °F 95% 29.78 in - North 1.2 mph - N/A   Unknown
7:00 PM 42.1 °F 39.2 °F 38.7 °F 88% 29.80 in - SE 4.6 mph - N/A   Unknown
9:00 PM 39.4 °F - 39.4 °F 100% 29.81 in - Calm Calm - 0.02 in   Unknown
10:00 PM 38.8 °F - 38.8 °F 100% 29.81 in - NNE 2.3 mph - N/A   Unknown
11:00 PM 39 °F - 39 °F 99% 29.82 in - Calm Calm - -  
11:00 PM 38.8 °F - 38.8 °F 100% 29.82 in - Calm Calm - 0.02 in   Unknown